Location: Goland
(48.1612°N, 0.8659°W)
Time: 05:36:02
(UTC+00:00)

Daily predictions for brighter satellites

Satellite Brightness Start Highest point End
(mag) Time Altitude Azimuth Time Altitude Azimuth Time Altitude Azimuth
Resurs 1-4 Rocket 4.3 01:35:43 10° NNE 01:37:26 21° NNE 01:37:26 21° NNE
CZ-2D R/B 4.2 01:40:58 10° NNE 01:42:55 23° NNE 01:42:55 23° NNE
SL-16 R/B 4.1 02:01:53 26° NNW 02:01:53 26° NNW 02:04:24 10° NNW
Cosmos 1980 Rocket 4.2 02:17:28 10° N 02:22:01 25° NE 02:26:34 10° E
ADEOS II 3.6 02:20:20 10° NNE 02:23:07 32° NNE 02:23:07 32° NNE
ATLAS 5 CENTAUR R/B 4.2 02:42:00 14° N 02:42:00 14° N 02:43:55 10° NNE
Cosmos 1833 Rocket 3.0 03:01:05 59° ESE 03:01:09 59° ESE 03:06:43 10° NE
MSX 4.2 02:58:19 10° N 03:02:58 54° NNW 03:02:58 54° NNW
FENGYUN 3A 4.2 02:59:03 10° NNE 03:04:21 54° E 03:05:03 51° SE
Atlas Centaur 2 4.4 03:12:00 20° S 03:12:00 20° S 03:16:12 10° SE
Cosmos 1371 Rocket 4.5 03:10:55 53° SE 03:11:21 55° ESE 03:16:28 10° NNE
USA 307 4.2 03:13:49 38° ENE 03:13:49 38° ENE 03:16:29 10° ENE
ATLAS CENTAUR R/B 2.6 03:12:30 43° ESE 03:12:30 43° ESE 03:17:03 10° NE
Resurs 1-4 Rocket 3.9 03:16:22 10° N 03:18:30 18° NNW 03:18:30 18° NNW
Cosmos 1934 Rocket 4.1 03:22:36 58° WNW 03:22:36 58° WNW 03:28:38 10° N
Cosmos 2082 Rocket 3.5 03:19:35 21° SSE 03:22:33 36° ESE 03:27:37 10° NE
USA 306 3.7 03:24:27 48° ENE 03:24:27 48° ENE 03:27:30 10° ENE
Cosmos 1697 Rocket 3.3 03:20:06 10° NNW 03:27:50 40° S 03:31:24 10° SSE
CZ-2D R/B 3.9 03:21:54 10° N 03:24:14 19° NW 03:24:14 19° NW
CZ-2C R/B 3.6 03:25:34 10° SE 03:30:34 47° ENE 03:35:41 10° N
ALOS 2.3 03:26:27 10° NNE 03:31:08 75° ESE 03:31:32 70° SSE
BREEZE-M DEB (TANK) 4.1 03:32:42 26° ENE 03:32:42 26° ENE 03:33:49 10° E
BREEZE-M R/B 4.1 03:30:33 55° W 03:32:06 82° N 03:43:46 10° E
Meteor 1-11 Rocket 4.0 03:26:43 10° N 03:32:44 75° ENE 03:38:39 10° SSE
IDEFIX/ARIANE 42P 3.9 03:29:24 10° N 03:32:34 26° NW 03:32:34 26° NW
Cosmos 1535 Rocket 4.4 03:34:41 56° W 03:34:55 56° WNW 03:40:57 10° N
Cosmos 1605 Rocket 3.8 03:33:49 58° SW 03:34:56 73° W 03:41:03 10° N
Cosmos 1743 3.4 03:32:08 10° N 03:35:15 50° NNE 03:35:15 50° NNE
COSMOS 2406 3.6 03:34:02 34° S 03:36:20 59° ESE 03:41:55 10° NE
CZ-2C R/B 2.6 03:32:13 10° NNE 03:37:13 68° ESE 03:38:51 41° S
CBERS-1 3.9 03:32:43 10° NNE 03:37:53 88° WNW 03:38:49 61° SSW
Cosmos 1954 Rocket 3.9 03:32:51 10° NNW 03:38:07 86° WSW 03:43:23 10° SSE
PAYLOAD A 4.0 03:36:23 10° NNE 03:41:12 71° ESE 03:43:09 37° S
Cosmos 2056 Rocket 3.3 03:40:20 62° SSW 03:41:13 88° ESE 03:46:22 10° NNE
Cosmos 1441 Rocket 3.7 03:42:10 53° ESE 03:42:23 54° E 03:46:05 10° NNE
IRS-1D 3.8 03:38:21 10° N 03:43:25 50° WNW 03:43:25 50° WNW
Cosmos 1633 Rocket 2.9 03:41:35 10° NNW 03:45:36 73° NW 03:45:36 73° NW
USA 308 2.8 03:46:41 74° N 03:46:41 74° N 03:50:38 10° ENE
Cosmos 1420 Rocket 3.9 03:46:29 48° SSW 03:48:00 87° ESE 03:53:14 10° NNE
X-37B 2.7 03:50:05 21° ESE 03:50:05 21° ESE 03:51:15 10° ESE
Meteor 2-6 Rocket 4.2 03:53:09 49° W 03:53:43 51° WNW 03:59:09 10° N
YAOGAN 6 4.4 03:51:49 10° NNE 03:55:06 31° E 03:58:19 10° SSE
Cosmos 2322 Rocket 4.3 03:53:22 10° N 03:58:09 27° NE 04:02:54 10° ESE
Cosmos 1933 Rocket 4.4 03:54:33 10° N 03:58:54 51° ENE 04:03:12 10° SSE
Lacrosse 4 Rocket 3.3 03:56:19 10° NNW 04:00:13 31° NE 04:04:10 10° ESE
Cosmos 1666 Rocket 4.3 03:56:02 10° NNW 03:59:05 37° NW 03:59:05 37° NW
Cosmos 1328 Rocket 3.4 04:00:53 51° SSW 04:01:55 74° W 04:06:21 10° N
Meteor 2-13 Rocket 4.5 03:56:21 10° N 04:02:31 82° E 04:08:41 10° S
Cosmos 1536 2.7 03:58:51 10° NNW 04:02:54 69° W 04:03:44 52° SSW
Cosmos 1151 Rocket 3.5 04:05:02 39° NW 04:05:02 39° NW 04:08:35 10° N
ADEOS II 3.8 04:01:19 10° NNW 04:04:03 17° NW 04:04:03 17° NW
Cosmos 1346 Rocket 2.8 04:06:05 57° WNW 04:06:05 57° WNW 04:10:00 10° N
Helios 1B rocket 2.3 04:02:23 10° NNE 04:06:29 84° WNW 04:07:56 39° SSW
Cosmos 1980 Rocket 2.0 04:00:59 10° NNW 04:06:35 72° WSW 04:12:08 10° SSE
Cosmos 2173 Rocket 4.0 04:03:30 10° S 04:09:36 80° E 04:15:43 10° N
Meteor 2-9 Rocket 4.5 04:06:38 10° N 04:12:25 71° ENE 04:17:59 10° SSE
USA 305 3.2 04:12:19 41° WNW 04:13:15 51° NNW 04:17:17 10° ENE
GP-B 3.9 04:09:28 10° SSE 04:13:44 52° E 04:18:04 10° N
Cosmos 2369 3.7 04:12:23 10° NW 04:17:56 55° WSW 04:23:25 10° S
ARIANE 5 R/B 2.4 04:13:58 10° NNE 04:19:01 87° WNW 04:24:01 10° SSW
IRS-1C 4.0 04:16:10 10° NNE 04:21:30 75° WNW 04:26:29 12° SSW
CZ-2D R/B 3.3 04:19:50 10° NNE 04:23:49 83° ESE 04:27:49 10° SSW
Cosmos 2278 3.7 04:19:02 10° NNW 04:24:45 90° E 04:30:24 10° SSE
SL-08 R/B 3.2 04:20:27 10° SSE 04:25:08 85° WSW 04:29:55 10° NNW
Cosmos 1515 Rocket 3.5 04:21:51 11° SSW 04:26:09 79° W 04:30:39 10° N
SL-16 R/B 3.1 04:21:28 10° NNW 04:27:01 51° NE 04:32:32 10° SE
ATLAS 5 CENTAUR R/B 4.2 04:25:14 10° NNW 04:28:00 15° NNE 04:31:02 10° NE
Centaur D AC-29 4.2 04:22:29 11° SSW 04:28:04 22° SSE 04:47:09 10° ESE
ERS-1 4.5 04:23:51 10° NNE 04:29:04 78° WNW 04:34:14 10° SSW
Cosmos 676 Rocket 4.5 04:24:55 10° NW 04:29:40 36° WSW 04:34:25 10° SSW
BREEZE M DEB (TANK) 4.1 04:20:44 17° SW 04:31:12 65° SSE 04:35:19 10° ENE
Cosmos 1470 Rocket 3.8 04:27:37 10° NNW 04:31:45 44° W 04:35:54 10° SSW
Meteor 1-27 Rocket 3.8 04:26:28 11° SSW 04:31:54 60° WNW 04:37:45 10° N
Cosmos 1452 Rocket 3.6 04:28:36 10° SSW 04:33:52 83° ESE 04:39:11 10° NNE
Envisat 3.0 04:36:25 10° NNE 04:41:32 89° E 04:46:37 10° SSW
MINOTAUR IV R/B 4.5 04:37:26 10° NNW 04:41:55 72° WSW 04:46:21 10° SSE
CZ-4C R/B 3.6 04:37:50 10° SSE 04:42:03 82° ENE 04:46:25 10° NNW
Cosmos 44 Rocket 3.3 04:41:09 22° WSW 04:44:07 59° NW 04:48:47 10° NNE
Cosmos 1833 Rocket 3.7 04:42:48 20° W 04:45:27 29° NW 04:50:21 10° NNE
Cosmos 1484 Rocket 2.9 04:41:37 10° N 04:45:33 56° WNW 04:49:25 10° SSW
Cosmos 482 Debris 4.3 04:43:29 21° WNW 04:45:43 86° NNE 04:51:00 10° ESE
Okean 1 3.3 04:41:42 10° SSW 04:45:43 65° W 04:49:45 10° N
Cosmos 1378 2.9 04:42:31 10° SSW 04:46:08 76° W 04:49:48 10° N
Cosmos 2100 Rocket 4.1 04:40:39 10° SSW 04:46:38 54° WNW 04:52:42 10° N
Meteor 1-4 Rocket 4.5 04:45:23 10° NW 04:46:20 15° NW 04:46:20 15° NW
Meteor 1-29 2.7 04:46:46 10° N 04:50:03 79° WNW 04:53:22 10° SSW
Cosmos 968 Rocket 4.4 04:45:49 10° NNW 04:50:53 52° ENE 04:55:54 10° SE
ATLAS CENTAUR R/B 2.5 04:48:30 20° W 04:51:18 37° NW 04:55:49 10° NNE
SJ 16-02 4.4 04:50:25 10° NNE 04:51:54 11° NE 04:53:23 10° ENE
USA 307 3.5 04:49:22 19° WNW 04:51:56 42° NNW 04:55:55 10° ENE
CENTAUR R/B 2.6 04:46:09 10° SW 04:52:01 89° SE 04:59:14 10° NE
Cosmos 2016 Rocket 4.0 04:46:01 10° SSW 04:52:23 78° W 04:58:48 10° N
SL-08 R/B 4.4 04:46:54 10° S 04:52:59 88° W 04:59:11 10° N
Cosmos 2219 Rocket 4.5 04:49:01 10° N 04:53:29 23° NE 04:57:55 10° E
ERBS 4.2 04:52:38 12° NW 04:54:05 16° N 04:55:59 10° NNE
COSMOS 2455 4.0 04:48:58 10° NNW 04:54:45 45° NE 05:00:29 10° ESE
Cosmos 2333 Rocket 4.1 04:52:21 10° NNW 04:57:25 31° NE 05:02:25 10° ESE
Cosmos 2061 Rocket 3.9 04:52:52 10° S 04:59:05 82° W 05:05:20 10° N
Orbus 7S? 4.2 04:57:09 18° W 04:59:33 48° NNW 05:06:09 10° NE
USA 306 3.7 04:59:58 15° WNW 05:03:03 38° N 05:06:56 10° ENE
COSMO-SKYMED 1 2.8 05:01:57 10° SSE 05:06:17 77° ENE 05:10:38 10° N
Cosmos 2082 Rocket 2.6 05:01:30 11° WSW 05:06:33 43° NW 05:11:54 10° NNE
ALOS 3.9 05:05:06 10° NNW 05:07:57 16° WNW 05:09:59 13° W
Cosmos 1697 Rocket 4.4 05:10:08 11° WSW 05:10:08 11° WSW 05:10:53 10° WSW
Cosmos 1242 Rocket 2.6 05:06:51 10° N 05:10:19 76° ENE 05:13:43 10° SSE
Cosmos 1707 Rocket 4.5 05:06:33 10° S 05:10:47 53° E 05:15:02 10° NNE
Cosmos 1461 2.8 05:07:01 10° SW 05:11:01 69° NW 05:15:13 10° NE
CZ-2C R/B 3.4 05:06:39 10° SSW 05:11:04 27° W 05:15:36 10° NW
Cosmos 1975 2.8 05:08:39 10° NNW 05:12:36 62° W 05:16:30 10° S
Cosmos 489 Rocket 4.4 05:07:03 10° NNW 05:13:19 77° WSW 05:19:31 10° SSE
Cosmos 1869 Rocket 3.6 05:09:50 10° NNW 05:14:12 55° W 05:18:29 10° S
CZ-2C R/B 3.8 05:11:24 10° NNW 05:14:52 19° WNW 05:18:12 10° WSW
Cosmos 2360 Rocket 2.9 05:09:46 10° NNW 05:15:20 57° ENE 05:20:51 10° SE
NOSS 3-2 (C) 3.5 05:11:44 10° SSW 05:17:10 76° SE 05:23:35 10° NE
NOSS 3-2 (A) 3.4 05:12:56 10° SW 05:18:26 65° NW 05:24:58 10° NE
SKYMED 3 4.5 05:16:14 10° SSE 05:20:25 89° ESE 05:24:36 10° NNW
COSMOS 2406 4.2 05:16:09 10° WSW 05:21:01 29° NW 05:25:56 10° NNE
SJ-6F 4.4 05:17:59 10° N 05:22:09 71° WNW 05:26:14 10° SSW
X-37B 1.7 05:21:18 11° WSW 05:23:39 26° SSW 05:26:08 10° SE
Meteor 2-4 Rocket 3.7 05:18:45 10° SSW 05:24:30 73° WNW 05:30:08 10° N
BREEZE M DEB (TANK) 3.1 05:22:30 10° WSW 05:25:18 80° SSE 05:32:15 10° ENE
USA 308 3.8 05:22:27 10° WNW 05:26:18 37° N 05:30:09 10° ENE
YAOGAN 6 3.9 05:25:23 10° NNW 05:28:13 22° WNW 05:31:01 10° WSW
SJ-12 3.9 05:26:19 10° N 05:30:24 74° WNW 05:34:29 10° SSW
Cosmos 1726 3.3 05:28:18 10° N 05:31:50 47° ENE 05:35:19 10° SSE
BREEZE-M DEB (TANK) 2.5 05:29:13 10° W 05:31:54 76° N 05:38:35 10° E
Tsikada Rocket 4.2 05:26:51 10° NNW 05:32:53 49° W 05:38:49 10° SSW
USA 238 DEB 3.7 05:26:41 10° SW 05:33:07 87° SE 05:40:02 10° NE
USA 238 3.7 05:26:47 10° SW 05:33:13 86° SE 05:40:08 10° NE
H-2A R/B 3.3 05:29:55 10° N 05:33:14 33° WNW 05:36:34 10° SW
CZ-2C R/B 3.6 05:28:34 10° N 05:34:03 46° WNW 05:39:20 10° SW
Cosmos 2233 Rocket 4.1 05:29:05 10° SSW 05:35:21 62° WNW 05:41:37 10° N
CZ-2C R/B 3.1 05:32:02 10° N 05:35:37 43° WNW 05:39:15 10° SW
Cosmos 2237 4.2 05:30:15 10° NNW 05:35:56 70° WSW 05:41:34 10° SSE
Cosmos 1733 Rocket 3.1 05:31:47 10° N 05:36:15 90° E 05:40:39 10° S
DMSP B5D2-2 4.2 05:32:08 10° S 05:37:18 58° W 05:42:33 10° NNW
